Orbital Elements at Epoch 2459000.5 (2020-May-31.0) TDB
Reference: JPL 15 (heliocentric ecliptic J2000)
Element | Value | Uncertainty (1-sigma) | Units |
e | .1891141092911939 | 2.299e-07 | |
a | 2.535135077441708 | 4.0503e-08 | au |
q | 2.055705265338458 | 5.9432e-07 | au |
i | 11.10648151318688 | 1.9736e-05 | deg |
node | 334.4734505526828 | 7.602e-05 | deg |
peri | 264.9550520543273 | 0.00010413 | deg |
M | 251.4711154515541 | 8.2483e-05 | deg |
tp | 2459444.970480019311 (2021-Aug-18.47048002) | 0.00034277 | TDB |
period | 1474.348266571614 4.04 | 3.5333e-05 9.674e-08 | d yr |
n | .2441756864116839 | 5.8516e-09 | deg/d |
Q | 3.014564889544959 | 4.8162e-08 | au |
|
| | Orbit Determination Parameters
Additional Information
|